Weather History for Caribou, ME

Change the Weather History Date:

Monday, February 10, 2014

  Actual Average Record
Temperature  
Mean Temperature 6 °F 12 °F  
Max Temperature 14 °F 22 °F 40 °F (2001)
Min Temperature -2 °F 3 °F -29 °F (1948)
Degree Days  
Heating Degree Days 59 52  
Month to date heating degree days 548 535  
Since 1 July heating degree days 5745 5829  
Cooling Degree Days 0 0  
Month to date cooling degree days 0 0  
Year to date cooling degree days 0 0  
Moisture  
Dew Point -2 °F    
Average Humidity 70    
Maximum Humidity 87    
Minimum Humidity 53    
Precipitation  
Precipitation 0.01 in 0.08 in 1.09 in (2005)
Month to date precipitation 0.42 0.79  
Year to date precipitation 4.41 3.50  
Snow  
Snow 0.20 in 0.80 in 12.80 in (1969)
Month to date snowfall 5.7 8.0  
Since 1 July snowfall 77.8 68.3  
Snow Depth 16.00 in    
Sea Level Pressure  
Sea Level Pressure 29.98 in    
Wind  
Wind Speed 5 mph (NNW)    
Max Wind Speed 14 mph    
Max Gust Speed 17 mph    
Visibility 7 miles    
Events Snow    
T = Trace of Precipitation, MM = Missing Value Source: NWS Daily Summary

Daily Weather History Graph

Daily Weather History Graph

Search for Another Location

Airport:

Trip Planner

Search our weather history database for the weather conditions in past years. The results will help you decide how hot, cold, wet, or windy it might be!

Date:

Astronomy

Feb. 10, 2014 Rise Set
Actual Time 6:44 AM EST 4:49 PM EST
Civil Twilight 6:12 AM EST 5:20 PM EST
Nautical Twilight 5:36 AM EST 5:56 PM EST
Astronomical Twilight 5:01 AM EST 6:31 PM EST
Moon 1:08 PM EST (2/10) 3:41 AM EST (2/10)
Length of Visible Light 11h 08m
Length of Day
10h 04m
Waxing Gibbous, 84% of the Moon is Illuminated
Feb 10
Waxing Gibbous
Feb 14
Full
Feb 22
Last Quarter
Mar 1
New
Mar 8
First Quarter

Hourly Weather History & Observations

Time (EST) Temp. Windchill Dew Point Humidity Pressure Visibility Wind Dir Wind Speed Gust Speed Precip Events Conditions
12:20 AM 3.9 °F - -0.9 °F 80% 29.93 in 2.5 mi Calm Calm - 0.00 in Snow Light Snow
12:33 AM 3.9 °F - -2.0 °F 76% 29.92 in 3.0 mi Calm Calm - 0.00 in Snow Light Snow
12:54 AM 3.9 °F - -0.9 °F 80% 29.98 in 2.5 mi Calm Calm - 0.00 in   Haze
1:50 AM 5.0 °F - -0.4 °F 78% 29.92 in 3.0 mi Calm Calm - 0.01 in Snow Light Snow
1:54 AM 5.0 °F - -0.0 °F 80% 29.97 in 3.0 mi Calm Calm - 0.01 in Snow Light Snow
2:30 AM 5.0 °F - -0.0 °F 80% 29.91 in 2.5 mi Calm Calm - 0.00 in Snow Light Snow
2:54 AM 5.0 °F - -0.0 °F 80% 29.96 in 2.0 mi Calm Calm - 0.00 in Snow Light Snow
3:17 AM 5.0 °F -2.1 °F -0.0 °F 80% 29.90 in 3.0 mi NNE 3.5 mph - 0.00 in Snow Light Snow
3:54 AM 5.0 °F -2.1 °F -0.0 °F 80% 29.96 in 3.0 mi North 3.5 mph - 0.00 in   Haze
4:21 AM 5.0 °F -2.1 °F -0.0 °F 80% 29.90 in 2.5 mi North 3.5 mph - N/A   Haze
4:29 AM 5.0 °F -2.1 °F -0.0 °F 80% 29.90 in 3.0 mi North 3.5 mph - N/A   Haze
4:54 AM 3.9 °F -5.3 °F -0.0 °F 84% 29.96 in 6.0 mi NNW 4.6 mph - N/A   Overcast
5:54 AM 1.9 °F -5.6 °F -2.0 °F 83% 29.96 in 8.0 mi North 3.5 mph - N/A   Overcast
6:54 AM 1.0 °F -10.3 °F -4.0 °F 79% 29.96 in 8.0 mi North 5.8 mph - N/A   Mostly Cloudy
7:03 AM 1.0 °F -10.3 °F -4.0 °F 79% 29.90 in 7.0 mi North 5.8 mph - N/A   Mostly Cloudy
7:13 AM -0.0 °F -11.6 °F -4.0 °F 83% 29.91 in 9.0 mi North 5.8 mph - N/A   Scattered Clouds
7:54 AM 1.9 °F -9.2 °F -2.9 °F 80% 29.98 in 10.0 mi North 5.8 mph - N/A   Mostly Cloudy
8:54 AM 3.9 °F -5.3 °F -0.9 °F 80% 29.99 in 9.0 mi NNW 4.6 mph - N/A   Overcast
9:54 AM 8.1 °F -2.0 °F 1.0 °F 73% 29.99 in 10.0 mi North 5.8 mph - N/A   Clear
10:29 AM 10.9 °F 4.7 °F 1.0 °F 64% 29.93 in 10.0 mi NW 3.5 mph - N/A   Mostly Cloudy
10:54 AM 12.0 °F 5.9 °F 1.0 °F 61% 29.98 in 10.0 mi NW 3.5 mph - N/A   Mostly Cloudy
11:10 AM 12.0 °F 5.9 °F -0.0 °F 59% 29.92 in 10.0 mi NNW 3.5 mph - N/A   Mostly Cloudy
11:54 AM 12.0 °F 0.5 °F -2.0 °F 53% 29.97 in 10.0 mi NW 8.1 mph - N/A   Partly Cloudy
12:54 PM 12.9 °F 0.7 °F -0.9 °F 54% 29.95 in 10.0 mi NNW 9.2 mph - N/A   Mostly Cloudy
1:54 PM 12.9 °F 0.7 °F -2.0 °F 51% 29.95 in 10.0 mi North 9.2 mph - N/A   Mostly Cloudy
2:54 PM 12.9 °F 1.6 °F -2.9 °F 49% 29.96 in 10.0 mi NW 8.1 mph - N/A   Clear
3:54 PM 12.0 °F -1.3 °F -2.9 °F 51% 29.97 in 10.0 mi NW 10.4 mph - N/A   Clear
4:54 PM 9.0 °F -2.2 °F -5.1 °F 53% 29.99 in 10.0 mi NNW 6.9 mph - N/A   Clear
5:54 PM 7.0 °F -4.5 °F -5.1 °F 58% 30.02 in 10.0 mi NNW 6.9 mph - N/A   Clear
6:54 PM 1.9 °F - -8.0 °F 63% 30.04 in 10.0 mi Calm Calm - N/A   Clear
7:54 PM 3.9 °F -8.2 °F -7.1 °F 60% 30.05 in 10.0 mi North 6.9 mph - N/A   Clear
8:54 PM 1.9 °F -7.6 °F -7.1 °F 66% 30.07 in 10.0 mi NW 4.6 mph - N/A   Mostly Cloudy
9:54 PM 1.9 °F - -7.1 °F 66% 30.09 in 10.0 mi Calm Calm - N/A   Overcast
10:54 PM 1.9 °F - -7.1 °F 66% 30.10 in 10.0 mi Calm Calm - N/A   Overcast
11:54 PM 1.0 °F -8.7 °F -7.1 °F 69% 30.10 in 10.0 mi West 4.6 mph - N/A   Overcast